FW3835 Weather Reports


time (UTC)temp
C
wind
direction
speed
KPH
gust
KPH
rain 1hr
cm
rain 24hr
cm
rain mn
cm
humidity
%
barometer
mb
20260504050005 16 258 6.4 20.9 0.00 0.00 0.00 30 993.8
20260504044515 16 255 6.4 35.4 0.00 0.00 0.00 27 993.4
20260504043022 16 263 8.0 33.8 0.00 0.00 0.00 25 992.9
20260504041531 17 186 6.4 30.6 0.00 0.00 0.00 24 993.2
20260504040004 17 223 8.0 33.8 0.00 0.00 0.00 24 993.3
20260504034506 16 235 9.7 25.7 0.00 0.00 0.00 24 993.8
20260504033016 16 198 8.0 29.0 0.00 0.00 0.00 23 994.3
20260504031520 17 123 9.7 19.3 0.00 0.00 0.00 23 994.7
20260504030021 16 181 4.8 19.3 0.00 0.00 0.00 25 995.2
20260504024505 17 263 3.2 20.9 0.00 0.00 0.00 24 995.6
20260504023010 17 266 6.4 19.3 0.00 0.00 0.00 24 995.8
20260504021518 17 217 6.4 19.3 0.00 0.00 0.00 24 996.3
20260504020020 17 201 4.8 16.1 0.00 0.00 0.00 24 996.6
20260504014527 17 208 8.0 19.3 0.00 0.00 0.00 23 996.9
20260504013005 17 184 3.2 20.9 0.00 0.00 0.00 24 997.3
20260504011512 17 271 1.6 14.5 0.00 0.00 0.00 24 997.6
20260504010015 17 234 4.8 20.9 0.00 0.00 0.00 23 998.0
20260504004522 18 241 3.2 17.7 0.00 0.00 0.00 22 998.3
20260504003029 18 234 1.6 14.5 0.00 0.00 0.00 22 998.7
20260504001509 18 190 3.2 12.9 0.00 0.00 0.00 21 999.0
20260504000014 18 252 6.4 16.1 0.00 0.00 0.00 21 999.4
20260503234518 18 248 4.8 25.7 0.00 0.00 0.00 22 999.7
20260503233033 19 223 1.6 12.9 0.00 0.00 0.00 21 999.9
20260503231523 20 213 4.8 17.7 0.00 0.00 0.00 19 1000.3
20260503230011 21 254 3.2 16.1 0.00 0.00 0.00 18 1000.5
20260503224517 21 274 3.2 16.1 0.00 0.00 0.00 18 1000.9
20260503223018 21 303 6.4 16.1 0.00 0.00 0.00 18 1001.2
20260503221529 20 273 4.8 17.7 0.00 0.00 0.00 19 1001.7
20260503220028 21 248 4.8 11.3 0.00 0.00 0.00 19 1001.9
20260503214514 21 282 4.8 14.5 0.00 0.00 0.00 19 1002.3
20260503213017 20 271 3.2 17.7 0.00 0.00 0.00 20 1002.6
20260503211524 20 291 3.2 14.5 0.00 0.00 0.00 21 1003.1
20260503210026 20 271 8.0 20.9 0.00 0.00 0.00 17 1003.2
20260503204526 20 252 3.2 16.1 0.00 0.00 0.00 16 1003.7
20260503203016 19 261 4.8 12.9 0.00 0.00 0.00 17 1003.9
20260503201518 20 242 4.8 22.5 0.00 0.00 0.00 15 1004.2
20260503200024 20 278 4.8 14.5 0.00 0.00 0.00 16 1004.5
20260503194508 20 213 3.2 11.3 0.00 0.00 0.00 18 1004.8
20260503193014 19 240 4.8 11.3 0.00 0.00 0.00 19 1005.4
20260503191518 18 275 4.8 14.5 0.00 0.00 0.00 19 1005.8
20260503190022 18 298 6.4 16.1 0.00 0.00 0.00 19 1006.0
20260503184524 18 284 4.8 24.1 0.00 0.00 0.00 20 1006.5
20260503183014 17 239 6.4 20.9 0.00 0.00 0.00 20 1006.7
20260503181514 17 196 4.8 14.5 0.00 0.00 0.00 20 1007.0
20260503180021 17 202 4.8 11.3 0.00 0.00 0.00 20 1007.3
20260503174524 17 230 4.8 19.3 0.00 0.00 0.00 21 1007.4
20260503173028 17 303 4.8 11.3 0.00 0.00 0.00 21 1007.6
20260503171511 16 262 3.2 17.7 0.00 0.00 0.00 23 1007.9
20260503081506 3 28 0.0 0.0 0.00 0.00 0.00 67 1007.4
20260503071518 4 30 0.0 0.0 0.00 0.00 0.00 66 1007.2